Regional Weather Roundup
Issued by NWS

Home | Current Version | Previous Version | Text Only | Print | Product List | Glossary Off
Versions: 1 2 3 4 5 6 7 8 9 10 11 12 13 14 15 16 17 18 19 20 21 22 23 24 25 26 27 28 29 30 31 32 33 34 35 36 37 38 39 40 41 42 43 44 45 46 47 48 49 50

000
ASUS45 KCYS 251610
RWRWY

WYOMING REGIONAL WEATHER ROUNDUP
NATIONAL WEATHER SERVICE CHEYENNE WY
900 AM MST TUE NOV 25 2014

NOTE:  "FAIR" INDICATES FEW OR NO CLOUDS BELOW 12,000 FEET
WITH NO SIGNIFICANT WEATHER AND/OR OBSTRUCTIONS TO VISIBILITY.

WYZ001-251700-
YELLOWSTONE NATIONAL PARK

CITY           SKY/WX    TMP DP  RH WIND       PRES   REMARKS
LK YELLOWSTONE   N/A     22  19  89 W10G16    30.00S WCI  11
W YELLOWSTONE  NOT AVBL

$$
WYZ002>013-054>058-071-098>099-251700-
NORTHERN WYOMING

CITY           SKY/WX    TMP DP  RH WIND       PRES   REMARKS
JACKSON        SNOW      27  27 100 SW12      30.08R VSB 1/2 WCI  16
CODY           CLOUDY    36  25  64 W18G36    29.85S WCI  25
GREYBULL       SNOW      26  24  92 NE3       29.93S VSB 1/4
WORLAND        LGT SNOW  26  23  88 S6        29.92R FOG     WCI  19
SHERIDAN       SNOW      32  30  92 S7        29.83R VSB 1/2 WCI  26
BUFFALO        LGT SNOW  31  28  89 SW3       29.83R FOG
GILLETTE       LGT SNOW  30  28  92 W9        29.81S VSB 1   WCI  22
HULETT           N/A     28  25  86 MISG        N/A
NEWCASTLE      FAIR      30  19  64 CALM      29.84S

$$
WYZ014>020-022>026-101>103-251700-
CENTRAL WYOMING

CITY           SKY/WX    TMP DP  RH WIND       PRES   REMARKS
BIG PINEY      CLOUDY   N/A N/A N/A E3        30.11F
PINEDALE       LGT SNOW  25  23  93 W5        30.11S WCI  19
DUBOIS         LGT SNOW  27  21  80 N24G38    29.95R WCI  12
LANDER         MOSUNNY   25  12  58 E5        29.92S WCI  19
RIVERTON       PTSUNNY   27  13  55 S14       29.93S WCI  16
CASPER         CLOUDY    33  15  47 SW23G30   29.89S WCI  21
DOUGLAS        CLOUDY   N/A N/A N/A W21G30    29.85F

$$
WYZ021-027>030-104>119-251700-
SOUTHERN WYOMING

CITY           SKY/WX    TMP DP  RH WIND       PRES   REMARKS
EVANSTON       PTSUNNY   29  18  63 SW23G33   30.23R WCI  15
KEMMERER       MIX PCPN  27  23  86 W28       30.16R WCI  11
FORT BRIDGER   CLOUDY    31  20  65 W26G33    30.22R WCI  17
ROCK SPRINGS   CLOUDY    26  15  63 W32G40    30.11R WCI   9
DIXON          CLOUDY    27  13  55 SW8G16    30.22S WCI  18
RAWLINS        PTSUNNY   25  13  60 W31G44    30.00R WCI   8
SARATOGA       FAIR      30  16  55 SW37G49   30.03F WCI  14
LARAMIE        CLOUDY    27  14  58 SW9G18    29.95R WCI  18
CHEYENNE       CLOUDY    32  15  49 W35G45    29.89S WCI  17
TORRINGTON     CLOUDY    38  16  40 W18G35    29.87F WCI  28
PINE BLUFFS    CLOUDY    34  18  51 W15G21    29.91F WCI  24

$$


USA.gov is the U.S. government's official web portal to all federal, state and local government web resources and services.